This is the latest recevied weather packets stored in our database for station/object KB2KRJ. If no packets are shown the sender has not sent any weather packets the latest 10 day(s).
| Time | Temp. | Humidity | Pressure | Rain* | Wind** | Luminosity | Snow |
|---|---|---|---|---|---|---|---|
| 1777472155 | 15.56° C | 60% | 1013.8 hPa | 0 mm | - | - | - |
| 1777471254 | 15.56° C | 61% | 1014.1 hPa | 0 mm | - | - | - |
| 1777468541 | 12.78° C | 66% | 1015 hPa | 0 mm | - | - | - |
| 1777464033 | 10.56° C | 69% | 1016.2 hPa | 0 mm | - | - | - |
| 1777462231 | 9.44° C | 69% | 1016.4 hPa | 0 mm | - | - | - |
| 1777461335 | 9.44° C | 69% | 1016.2 hPa | 0 mm | - | - | - |
| 1777459531 | 9.44° C | 69% | 1016.1 hPa | 0 mm | - | - | - |
| 1777450522 | 10.56° C | 68% | 1015.4 hPa | 0 mm | - | - | - |
| 1777447819 | 11.11° C | 68% | 1015.4 hPa | 0 mm | - | - | - |
| 1777442408 | 11.11° C | 67% | 1016.8 hPa | 0 mm | - | - | - |
| 1777437961 | 10° C | 69% | 1016.9 hPa | 0 mm | - | - | - |
| 1777433451 | 11.11° C | 62% | 1016.6 hPa | 0 mm | - | - | - |
| 1777425349 | 14.44° C | 49% | 1016.8 hPa | 0 mm | - | - | - |
| 1777418152 | 16.67° C | 45% | 1016.6 hPa | 0 mm | - | - | - |
| 1777412737 | 17.22° C | 45% | 1017.6 hPa | 0 mm | - | - | - |
| 1777410038 | 17.22° C | 45% | 1017.5 hPa | 0 mm | - | - | - |
| 1777408233 | 17.22° C | 43% | 1017.8 hPa | 0 mm | - | - | - |
| 1777407325 | 17.78° C | 44% | 1018 hPa | 0 mm | - | - | - |
| 1777406424 | 17.78° C | 44% | 1018.2 hPa | 0 mm | - | - | - |
| 1777383037 | 12.78° C | 66% | 1021 hPa | 0 mm | - | - | - |
| 1777363210 | 5.56° C | 56% | 1021.9 hPa | 0 mm | - | - | - |
| 1777359602 | 6.67° C | 62% | 1021.7 hPa | 0 mm | - | - | - |
| 1777356953 | 7.78° C | 66% | 1021.9 hPa | 0 mm | - | - | - |
| 1777347924 | 12.22° C | 61% | 1023.1 hPa | 0 mm | - | - | - |
| 1777344321 | 10.56° C | 65% | 1023.3 hPa | 0 mm | - | - | - |
* Rain latest hour (hover to see other rain measurements)
** Current wind speed in m/s (hover to see current wind gust speed)